{"data":{"norad_id":46064,"intl_designator":"2020-055AP","name":"STARLINK-1583","alt_names":[],"object_type":"PAYLOAD","status":"ACTIVE","operator":null,"country":"US","launch_date":"2020-08-07","launch_site_code":"AFETR","launch_vehicle":null,"mission":null,"orbit_class":"UNKNOWN","rcs_meters":null,"size_class":null,"mass_kg":null,"dimensions":null,"purposes":["comms"],"wikipedia_slug":null,"has_3d_model":false,"image_url":null,"decayed_at":null,"tle_current":{"epoch":"2026-05-25T02:40:51.254112Z","epoch_age_seconds":65450,"freshness":"FRESH","line1":"1 46064U 20055AP  26145.11170433  .00000499  00000+0  29000-4 0  9996","line2":"2 46064  53.1608 118.8912 0001445  96.7664 263.3501 15.30187986320763","mean_motion":15.30187986,"eccentricity":0.0001445,"inclination_deg":53.1608,"raan_deg":118.8912,"arg_perigee_deg":96.7664,"mean_anomaly_deg":263.3501,"bstar":2.9e-5,"rev_number":32076,"period_min":94.106084557901,"perigee_km":474.26062673497,"apogee_km":476.24125585,"semimajor_km":6853.3879412925,"source":"CELESTRAK","updated_at":"2026-05-25T13:38:16.463435Z"}}}